Volver al catálogo

STARLINK-3528

ActivoComunicacionesVLEO
NORAD 51714·PAYLOAD·🇺🇸 United States

Lanzado Feb 21, 2022 desde Cape Canaveral Space Force Station

Loading…

Próximos Pases (próximas 24 horas)

TLE

ActualizadoSource: CelesTrak SupGP

Época: Sep 14, 2026, 21:32 UTC

1 51714C 22016A   26257.89770833 -.00012978  00000+0 -37125-3 0  2572
2 51714  53.1576 189.7469 0001254  89.9140 231.1073 15.35410114    17

Sigue STARLINK-3528 en tiempo real con AllMySat

Download on the App Store